{"data":{"norad_id":52335,"intl_designator":"2022-045E","name":"STARLINK-3814","alt_names":[],"object_type":"PAYLOAD","status":"ACTIVE","operator":null,"country":"US","launch_date":"2022-04-29","launch_site_code":"AFETR","launch_vehicle":null,"mission":null,"orbit_class":"UNKNOWN","rcs_meters":null,"size_class":null,"mass_kg":null,"dimensions":null,"purposes":["comms"],"wikipedia_slug":null,"has_3d_model":false,"image_url":null,"decayed_at":null,"tle_current":{"epoch":"2026-09-20T00:44:53.474208Z","epoch_age_seconds":100173,"freshness":"FRESH","line1":"1 52335U 22045E   26263.03117447  .00002150  00000+0  72498-4 0  9998","line2":"2 52335  53.1618  53.6834 0001245  83.8170 276.2975 15.35407441245016","mean_motion":15.35407441,"eccentricity":0.0001245,"inclination_deg":53.1618,"raan_deg":53.6834,"arg_perigee_deg":83.817,"mean_anomaly_deg":276.2975,"bstar":7.2498e-5,"rev_number":24501,"period_min":93.786180889037,"perigee_km":458.85923859194,"apogee_km":460.56186263204,"semimajor_km":6837.847550612,"source":"CELESTRAK","updated_at":"2026-09-20T09:00:40.021754Z"}}}